sat.trackr.live / text

‹ back to catalog

STARLINK-1277

NORAD 45369 · 2020-019K

PAYLOAD ACTIVE UNKNOWN

§ Identity

Operator
Country
US
Launch date
2020-03-18
Launch site
AFETR
Launch vehicle
Mass (kg)
RCS (m²)

Purposes: comms

External: N2YO · Heavens-Above · Gunter

§ Orbital elements

Epoch: 2026-05-25T03:39:11.985984Z

Period
92.22 min
Inclination
53.0427°
Eccentricity
0.0006733
Mean motion
15.61491285 rev/d
Perigee alt
378.8 km
Apogee alt
387.9 km
Semi-major
6,761.5 km
B*
1.0146e-3
RAAN
142.6387°
Arg perigee
1.2796°
Mean anomaly
358.8233°
Rev number
34,183

§ Raw data

STARLINK-12771 45369U 20019K   26145.15222206  .00088984  00000+0  10146-2 0  99972 45369  53.0427 142.6387 0006733   1.2796 358.8233 15.61491285341838

JSON: /api/v1/satellites/45369 · /tle

For live sub-satellite position, see the globe view (requires WebGL).

§ Visibility from observer

Set your observer location to see the next 7 days of passes ≥ 10°. The values pass through the URL so the page stays shareable.

No JS? Fill the form by hand. The geolocation button needs JavaScript.